Weather History for EHRD - March, 2013

Change the Weather History Date:

Wednesday, March 6, 2013

  Actual Average Record
Temperature  
Mean Temperature 46 °F -  
Max Temperature 58 °F 49 °F 58 °F (2013)
Min Temperature 35 °F 37 °F 21 °F (2005)
Degree Days  
Heating Degree Days 18    
Moisture  
Dew Point 38 °F    
Average Humidity 66    
Maximum Humidity 87    
Minimum Humidity 46    
Precipitation  
Precipitation 0.00 in - - ()
Sea Level Pressure  
Sea Level Pressure 29.60 in    
Wind  
Wind Speed 4 mph ()    
Max Wind Speed 8 mph    
Max Gust Speed -    
Visibility 6.5 miles    
Events      
Averages and records for this station are not official NWS values.
T = Trace of Precipitation, MM = Missing Value Source: Averaged Metar Reports

Daily Weather History Graph

Daily Weather History Graph

Search for Another Location

Airport or City:

Trip Planner

Search our weather history database for the weather conditions in past years. The results will help you decide how hot, cold, wet, or windy it might be!

Date:

Astronomy

Mar. 06, 2013 Rise Set
Actual Time 7:16 AM CET 6:31 PM CET
Civil Twilight 6:43 AM CET 7:04 PM CET
Nautical Twilight 6:04 AM CET 7:43 PM CET
Astronomical Twilight 5:24 AM CET 8:23 PM CET
Moon 3:44 AM CET (3/6) 12:24 PM CET (3/6)
Length of Visible Light 12h 21m
Length of Day
11h 14m
Waning Crescent, 33% of the Moon is Illuminated
Mar 6
Waning Crescent
Mar 11
New
Mar 19
First Quarter
Mar 27
Full
Apr 3
Last Quarter

Hourly Weather History & Observations

Time (CET) Temp. Windchill Dew Point Humidity Pressure Visibility Wind Dir Wind Speed Gust Speed Precip Events Conditions
12:25 AM 44.6 °F 43.1 °F 35.6 °F 71% 29.68 in 6.2 mi SSE 3.5 mph - N/A   Unknown
12:55 AM 44.6 °F 42.2 °F 33.8 °F 66% 29.65 in 6.2 mi SSE 4.6 mph - N/A   Unknown
1:00 AM 45 °F - 35 °F 56% 29.68 in 11 mi SSE 4.5 mph - -   Partly Cloudy
1:25 AM 44.6 °F - 35.6 °F 71% 29.65 in 6.2 mi Variable 1.2 mph - N/A   Unknown
1:55 AM 42.8 °F - 35.6 °F 76% 29.65 in 6.2 mi ESE 1.2 mph - N/A   Unknown
2:25 AM 39.2 °F - 33.8 °F 81% 29.65 in 6.2 mi ESE 2.3 mph - N/A   Unknown
2:55 AM 39.2 °F - 33.8 °F 81% 29.65 in 6.2 mi ESE 2.3 mph - N/A   Unknown
3:25 AM 39.2 °F - 33.8 °F 81% 29.62 in 6.2 mi NE 2.3 mph - N/A   Unknown
3:55 AM 37.4 °F 33.8 °F 33.8 °F 87% 29.62 in 6.2 mi ENE 4.6 mph - N/A   Unknown
4:00 AM 38 °F - 34 °F 78% 29.64 in 8 mi East 4.5 mph - -   Mostly Cloudy
4:25 AM 41.0 °F 38.0 °F 35.6 °F 81% 29.62 in 6.2 mi East 4.6 mph - N/A   Unknown
4:55 AM 42.8 °F - 35.6 °F 76% 29.62 in 6.2 mi ENE 2.3 mph - N/A   Unknown
5:25 AM 41.0 °F 39.0 °F 35.6 °F 81% 29.62 in 6.2 mi ENE 3.5 mph - N/A   Unknown
5:55 AM 42.8 °F 40.1 °F 35.6 °F 76% 29.62 in 6.2 mi ENE 4.6 mph - N/A   Unknown
6:25 AM 41.0 °F 38.0 °F 37.4 °F 87% 29.62 in 6.2 mi ENE 4.6 mph - N/A   Unknown
6:55 AM 41.0 °F 39.0 °F 35.6 °F 81% 29.62 in 6.2 mi East 3.5 mph - N/A   Unknown
7:00 AM 42 °F - 37 °F 75% 29.63 in 7 mi East 4.5 mph - -   Partly Cloudy
7:25 AM 44.6 °F 42.2 °F 35.6 °F 71% 29.62 in 6.2 mi East 4.6 mph - N/A   Unknown
7:55 AM 44.6 °F 41.4 °F 35.6 °F 71% 29.62 in 6.2 mi East 5.8 mph - N/A   Unknown
8:25 AM 44.6 °F 42.2 °F 35.6 °F 71% 29.62 in 6.2 mi East 4.6 mph - N/A   Unknown
8:55 AM 44.6 °F 42.2 °F 37.4 °F 76% 29.62 in 6.2 mi ENE 4.6 mph - N/A   Unknown
9:25 AM 46.4 °F 43.5 °F 37.4 °F 71% 29.62 in 6.2 mi East 5.8 mph - N/A   Unknown
9:55 AM 48.2 °F - 39.2 °F 71% 29.62 in 6.2 mi East 5.8 mph - N/A   Unknown
10:00 AM 49 °F - 38 °F 56% 29.64 in 7 mi East 4.5 mph - -   Overcast
10:25 AM 50.0 °F - 37.4 °F 62% 29.62 in 6.2 mi Variable 2.3 mph - N/A   Unknown
10:55 AM 51.8 °F - 39.2 °F 62% 29.62 in 6.2 mi East 3.5 mph - N/A   Unknown
11:25 AM 51.8 °F - 39.2 °F 62% 29.62 in 4.3 mi East 3.5 mph - N/A   Unknown
11:55 AM 53.6 °F - 39.2 °F 58% 29.62 in 6.2 mi East 3.5 mph - N/A   Unknown
12:25 PM 53.6 °F - 41.0 °F 62% 29.62 in 6.2 mi East 3.5 mph - N/A   Unknown
12:55 PM 55.4 °F - 41.0 °F 58% 29.59 in 6.2 mi East 3.5 mph - N/A   Unknown
1:00 PM 55 °F - 41 °F 48% 29.62 in 7 mi East 4.5 mph - -   Partly Cloudy
1:25 PM 57.2 °F - 41.0 °F 55% 29.59 in 6.2 mi East 4.6 mph - N/A   Unknown
1:55 PM 57.2 °F - 42.8 °F 59% 29.59 in 6.2 mi ENE 5.8 mph - N/A   Unknown
2:25 PM 59.0 °F - 42.8 °F 55% 29.59 in 6.2 mi ENE 6.9 mph - N/A   Unknown
2:55 PM 59.0 °F - 42.8 °F 55% 29.59 in 6.2 mi ENE 5.8 mph - N/A   Unknown
3:25 PM 57.2 °F - 41.0 °F 55% 29.59 in 6.2 mi NE 8.1 mph - N/A   Unknown
3:55 PM 57.2 °F - 42.8 °F 59% 29.56 in 6.2 mi ENE 5.8 mph - N/A   Unknown
4:00 PM 57 °F - 42 °F 46% 29.59 in 11 mi ENE 6.7 mph - -   Overcast
4:25 PM 57.2 °F - 41.0 °F 55% 29.56 in 6.2 mi ENE 5.8 mph - N/A   Unknown
4:55 PM 57.2 °F - 41.0 °F 55% 29.56 in 6.2 mi ENE 6.9 mph - N/A   Unknown
5:25 PM 55.4 °F - 42.8 °F 63% 29.56 in 6.2 mi ENE 6.9 mph - N/A   Unknown
5:55 PM 55.4 °F - 44.6 °F 67% 29.56 in 6.2 mi NE 5.8 mph - N/A   Unknown
6:25 PM 51.8 °F - 44.6 °F 76% 29.56 in 6.2 mi ENE 5.8 mph - N/A   Unknown
6:55 PM 51.8 °F - 42.8 °F 71% 29.56 in 6.2 mi ENE 4.6 mph - N/A   Unknown
7:00 PM 52 °F - 43 °F 63% 29.58 in 7 mi ENE 4.5 mph - -   Partly Cloudy
7:25 PM 55.4 °F - 41.0 °F 58% 29.56 in 6.2 mi East 8.1 mph - N/A   Unknown
7:55 PM 53.6 °F - 39.2 °F 58% 29.56 in 6.2 mi East 6.9 mph - N/A   Unknown
8:25 PM 53.6 °F - 37.4 °F 54% 29.56 in 6.2 mi East 4.6 mph - N/A   Unknown
8:55 PM 51.8 °F - 37.4 °F 58% 29.56 in 6.2 mi ENE 6.9 mph - N/A   Unknown
9:25 PM 50.0 °F - 37.4 °F 62% 29.56 in 6.2 mi ENE 6.9 mph - N/A   Unknown
9:55 PM 50.0 °F - 37.4 °F 62% 29.56 in 6.2 mi ENE 8.1 mph - N/A   Unknown
10:00 PM 50 °F - 38 °F 52% 29.58 in 13 mi ENE 6.7 mph - -   Overcast
10:25 PM 50.0 °F - 37.4 °F 62% 29.56 in 6.2 mi ENE 8.1 mph - N/A   Unknown
10:55 PM 48.2 °F - 37.4 °F 66% 29.56 in 6.2 mi ENE 8.1 mph - N/A   Unknown
11:25 PM 46.4 °F 42.4 °F 37.4 °F 71% 29.56 in 6.2 mi ENE 8.1 mph - N/A   Unknown
11:55 PM 46.4 °F 42.4 °F 37.4 °F 71% 29.53 in 6.2 mi ENE 8.1 mph - N/A   Unknown